Location: Boone Canyon
(38.3180°N, 119.2504°W)
Time: 18:16:04
(UTC+00:00)

OE (NEXTSAT) - Pass Details

Date: 18 September 2020
Orbit: 429 x 439 km, 46.0° (Epoch: 19 October)

Event Time Altitude Azimuth Distance (km) Brightness Sun altitude
Exits shadow 12:04:49 76° 232° (SW) 445 4.1 -19.5°
Maximum altitude 12:04:54 77° 212° (SSW) 443 4.1 -19.5°
Drops below altitude 10° 12:08:20 10° 125° (SE) 1,522 7.6 -18.8°
Sets 12:10:27 0° 124° (ESE) 2,387 8.7 -18.4°
